STARLINK-37567, 68903

Orbit data source: Space-Track

STARLINK-37567, 68903 is a payload satellite owned by SpaceX/Seattle (US) in SSO that was launched on Thu, 30 Apr 2026 UTC via an FALCON 9 launch vehicle from the Air Force Western Test Range (AFWTR). Payload-class satellites include a variety of spacecraft equipped with specific instruments for various scientific and technological missions. These include communications satellites like Starlink; space stations such as the ISS; scientific satellites like the Hubble; Earth observation satellites from companies like Planet Labs, Umbra, and HawkEye 360; GPS; miniature CubeSats for education and research; and military/defense satellites.

Loading next visibility...
Identifier
68903, 2026-097J
Orbit
SSO
Country
Flag of USUS
Related business
Manufacturer
SpaceX/Seattle
Mission
Operational spacecraft
Bus & Motor
STARLINK V2MO, Unknown motor
Mass
575 kg wet, ~530 kg dry
Launch date (UTC)
2026-04-30 (2 months ago)
Launch vehicle
FALCON 9
Launch site
Air Force Western Test Range (AFWTR)
Object type
Payload
Rocket body
Debris
Shape & HBR
Unknown shape, 14.5 m
Radar Cross Section
Large (>1 m²)

Expand to show TLE details & history
Last TLE update: 10 hours ago

TLE from 10 hours ago
0 STARLINK-37567
1 68903U 26097J   26171.44842301  .00013542  00000-0  42100-3 0  9998
2 68903  97.2857   6.8791 0001862  92.1288 268.0168 15.33446787  7987
Epoch: 2026-06-20T10:45Z
TLE epoch observation values (Epoch: 2026-06-20T10:45:43.748Z)
Latitude
0.00001°
Longitude
-63.21608°
Altitude
468.694 km
Speed
7.632 km/s
True Right ascension
00h 27m 30s
True Declination
0° 00' 00"
Sunlit
Object was in daylight at epoch
Visualization orbit readout
Latitude
Unknown
Longitude
Unknown
Altitude
Unknown
Speed
Unknown
Apparent Right ascension
Unknown
Apparent Declination
Unknown
Sunlit
N/A
Visualization observer readout
Local Sidereal Time
07:21:27
Azimuth
Unknown
Elevation
Unknown
Doppler factor
Unknown
Orbital elements
Apogee altitude
463.754 km
Perigee altitude
461.207 km
Semi-major axis
6,840.618 km
Eccentricity
0.00019
Inclination
97.2857°
RAAN
6.8791°
Arg. of periapsis
92.1288°
True anomaly
267.99548°
Mean anomaly
268.0168°
Eccentric anomaly
268.00614°
Mean motion
3.83619 °/min
Orbital period
93.84 mins
BSTAR
0.000421
Loading maneuver chart data...
Computing Atmospheric mass density...
Loading historical data...
Loading historical data...
Loading historical data...
Loading historical data...
Loading historical data...
Loading historical data...
Loading historical data...

Documentation

Showing up to 5 results
|